Regional Weather Roundup
Issued by NWS

Home | Current Version | Previous Version | Text Only | Print | Product List | Glossary On
Versions: 1 2 3 4 5 6 7 8 9 10 11 12 13 14 15 16 17 18 19 20 21 22 23 24 25 26 27 28 29 30 31 32 33 34 35 36 37 38 39 40 41 42 43 44 45 46 47 48 49 50
000
ASUS43 KOAX 190510
RWRNE

WEATHER ROUNDUP FOR NEBRASKA
NATIONAL WEATHER SERVICE OMAHA NE
1100 PM CST WED JAN 18 2017

NOTES: SATELLITE DATA IS BEING USED TO AUGMENT CLOUD COVER ABOVE
       12000 FEET.
       "FAIR" INDICATES FEW OR NO CLOUDS BELOW 12,000 FEET WITH NO
       SIGNIFICANT WEATHER AND/OR OBSTRUCTIONS TO VISIBILITY.

  * THESE STATIONS DO NOT REPORT WEATHER SUCH AS RAIN...SNOW OR FOG.

NEZ001>004-019>022-054>056-190600-
NEBRASKA PANHANDLE

CITY           SKY/WX    TMP DP  RH WIND       PRES   REMARKS
SCOTTSBLUFF    CLOUDY    27  21  78 N6        29.65F WCI  20
ALLIANCE       CLOUDY    22  20  92 SE3       29.64F
CHADRON        CLOUDY    21  17  84 S3        29.60F
KIMBALL        CLOUDY    29  26  88 W6        29.68S WCI  23
SIDNEY         CLOUDY    26  22  84 W12       29.68S WCI  16
$$

NEZ057>060-069>072-079>082-190600-
SOUTHWEST NEBRASKA

CITY           SKY/WX    TMP DP  RH WIND       PRES   REMARKS
NORTH PLATTE   CLEAR     27  25  92 CALM      29.73F
IMPERIAL       CLOUDY    29  25  85 SE6       29.72F WCI  23
LEXINGTON      PTCLDY    35  33  93 SE5       29.76F WCI  31
MCCOOK         CLEAR     31  31 100 SE5       29.75F FOG     WCI  26
OGALLALA       CLOUDY    29  27  92 CALM      29.70S
$$

NEZ005>010-023>029-035>040-094-190600-
NORTH CENTRAL NEBRASKA

CITY           SKY/WX    TMP DP  RH WIND       PRES   REMARKS
VALENTINE      CLOUDY    31  24  75 S7        29.65F WCI  24
AINSWORTH      CLEAR     34  32  92 S13       29.68F WCI  25
BROKEN BOW     CLEAR     38  35  89 S10       29.74F WCI  31
O`NEILL        CLEAR     37  36  94 S8        29.74S WCI  31
ORD            CLEAR     34  32  92 SE6       29.76F WCI  29
THEDFORD       CLEAR     34  32  92 S8        29.70F WCI  27
$$

NEZ041-046>049-061>064-073>077-083>087-190600-
SOUTH CENTRAL NEBRASKA

CITY           SKY/WX    TMP DP  RH WIND       PRES   REMARKS
GRAND ISLAND   CLEAR     37  35  92 S12       29.81S WCI  29
AURORA         CLEAR     38  34  87 S9        29.82S WCI  31
HASTINGS       PTCLDY    38  34  85 S8        29.82F WCI  32
HEBRON         MOCLDY    39  35  84 S8        29.85F WCI  34
HOLDREGE       PTCLDY    39  37  92 S10       29.78F WCI  32
KEARNEY *      CLOUDY    36  34  93 S8        29.79S WCI  29
YORK           PTCLDY    39  36  87 S14       29.83F WCI  31
$$

NEZ011>018-030>034-042>045-190600-
NORTHEAST NEBRASKA

CITY           SKY/WX    TMP DP  RH WIND       PRES   REMARKS
NORFOLK        CLEAR     38  34  85 S14       29.80F WCI  30
ALBION         CLEAR     37  34  92 SE8       29.80S WCI  30
BLAIR          CLEAR     37  34  87 S7        29.86F WCI  32
FREMONT        CLEAR     36  33  90 SE3       29.86F
TEKAMAH        CLEAR     35  32  88 SE9       29.86F WCI  28
WAYNE          CLEAR     36  35  94 S8        29.81F WCI  30
$$

NEZ050>053-065>068-078-088>093-190600-
SOUTHEAST NEBRASKA

CITY           SKY/WX    TMP DP  RH WIND       PRES   REMARKS
LINCOLN        CLEAR     39  32  76 S13       29.88S WCI  31
OMAHA EPPLEY   CLEAR     38  33  82 S13       29.88F WCI  30
BEATRICE       CLEAR     38  32  79 SE9       29.88S WCI  31
FALLS CITY     CLOUDY    38  35  89 S5        29.93S WCI  34
NEBRASKA CITY  PTCLDY    35  35 100 S10       29.90F WCI  27
PLATTSMOUTH    PTCLDY    38  33  80 S15       29.88S WCI  30
$$

NEZ044-045-051>053-067-190600-
OMAHA AREA

CITY           SKY/WX    TMP DP  RH WIND       PRES   REMARKS
OMAHA EPPLEY   CLEAR     38  33  82 S13       29.88F WCI  30
BLAIR          CLEAR     37  34  87 S7        29.86F WCI  32
FREMONT        CLEAR     36  33  90 SE3       29.86F
MILLARD        CLEAR     37  34  89 SE6       29.88F WCI  32
OFFUTT AFB     CLEAR     36  36 100 SE7       29.88F WCI  31
PLATTSMOUTH    PTCLDY    38  33  80 S15       29.88S WCI  30
WAHOO          FAIR      33  32  94 CALM      29.85F
$$



USA.gov is the U.S. government's official web portal to all federal, state and local government web resources and services.